Regional Weather Roundup
Issued by NWS

Home | Current Version | Previous Version | Text Only | Print | Product List | Glossary On
Versions: 1 2 3 4 5 6 7 8 9 10 11 12 13 14 15 16 17 18 19 20 21 22 23 24 25 26 27
000
ASUS45 KREV 281210
RWRNV
NEVADA REGIONAL WEATHER ROUNDUP
NATIONAL WEATHER SERVICE RENO NV
500 AM PDT THU JUL 28 2016

NOTE: "FAIR" INDICATES FEW OR NO CLOUDS BELOW 12,000 FEET WITH NO
SIGNIFICANT WEATHER AND/OR OBSTRUCTIONS TO VISIBILITY.

NVZ001-003-004-281300-
WESTERN NEVADA

CITY           SKY/WX    TMP DP  RH WIND       PRES   REMARKS
RENO           CLEAR     70  41  34 SW3       30.15S
6HR MIN TEMP:  70; 6HR MAX TEMP:  85;

CARSON CITY    FAIR      63  39  42 CALM      30.19S
MINDEN         FAIR      54  41  62 CALM      30.19R
PYRAMID LAKE     N/A     79 N/A N/A S5          N/A
FALLON         CLEAR     66  35  31 SE9       30.08S
6HR MIN TEMP:  63; 6HR MAX TEMP:  86;

LOVELOCK       CLEAR     61  26  26 E3        30.08R
6HR MIN TEMP:  61; 6HR MAX TEMP:  88;

HAWTHORNE      CLEAR     73  37  27 CALM      30.12S
$$

NVZ002-CAZ072-073-281300-
NORTHERN AND CENTRAL SIERRA

CITY           SKY/WX    TMP DP  RH WIND       PRES   REMARKS
S. LAKE TAHOE  CLEAR     50  40  68 S3        30.30S
6HR MIN TEMP:  50; 6HR MAX TEMP:  63;

TRUCKEE        CLEAR     48  37  66 CALM      30.29S
SQUAW VLY 8000 NOT AVBL
SUSANVILLE     CLEAR     63  37  39 CALM      30.14
MAMMOTH LAKES    N/A     58  38  47 NW3       30.36R
6HR MIN TEMP:  56; 6HR MAX TEMP:  68;

BRIDGEPORT       N/A     52  33  48 CALM      30.33S
$$

NVZ030-031-036-281300-
NORTHERN NEVADA

CITY           SKY/WX    TMP DP  RH WIND       PRES   REMARKS
ELKO           PTCLDY    55  30  38 CALM      30.18R
6HR MIN TEMP:  55; 6HR MAX TEMP:  70;

WINNEMUCCA     CLEAR     54  27  35 SE5       30.12R
6HR MIN TEMP:  54; 6HR MAX TEMP:  72;

WENDOVER       PTCLDY    82  32  16 SE9       30.07R
$$

NVZ035-037-281300-
CENTRAL NEVADA

CITY           SKY/WX    TMP DP  RH WIND       PRES   REMARKS
ELY            CLEAR     55  22  27 S9        30.25R
6HR MIN TEMP:  54; 6HR MAX TEMP:  71;

EUREKA           N/A     61  24  24 S10       30.23R
6HR MIN TEMP:  56; 6HR MAX TEMP:  67;

$$

NVZ013-014-281300-
SOUTH CENTRAL NEVADA

CITY           SKY/WX    TMP DP  RH WIND       PRES   REMARKS
TONOPAH        CLEAR     70  25  18 N12       30.17S
6HR MIN TEMP:  69; 6HR MAX TEMP:  85;

$$

NVZ017-020-022-281300-
SOUTHERN NEVADA

CITY           SKY/WX    TMP DP  RH WIND       PRES   REMARKS
LAS VEGAS      PTCLDY    92  44  19 SW3       29.79S
6HR MIN TEMP:  92; 6HR MAX TEMP: 102;

N. LAS VEGAS   PTCLDY    89  48  24 N5        29.83R
6HR MIN TEMP:  89; 6HR MAX TEMP: 102;

NELLIS AFB     PTCLDY    87  48  25 NE5       29.81R
6HR MIN TEMP:  87; 6HR MAX TEMP: 101;

HENDERSON      CLEAR     89  48  24 S10       29.88R
6HR MIN TEMP:  89; 6HR MAX TEMP:  98;

MERCURY        PTCLDY    80  42  25 SE3       29.94S
6HR MIN TEMP:  80; 6HR MAX TEMP:  96;

$$




USA.gov is the U.S. government's official web portal to all federal, state and local government web resources and services.